Location: *
(35.8942°N, 23.3025°E)
Time: 20:16:03
(UTC+00:00)

N. Korean satellite - Pass Details

Date: 01 December 2022
Orbit: 407 x 442 km, 97.3° (Epoch: 05 February)

Event Time Altitude Azimuth Distance (km) Brightness Sun altitude
Rises 03:51:21 0° 7° (N) 2,519 10.1 -17.3°
Reaches altitude 10° 03:53:26 10° 4° (N) 1,634 9.1 -16.9°
Maximum altitude 03:56:54 62° 284° (WNW) 526 6.4 -16.2°
Drops below altitude 10° 04:00:18 10° 203° (SSW) 1,598 9.1 -15.6°
Sets 04:02:19 0° 199° (SSW) 2,458 10.1 -15.2°
